Flag for India Weather past 2 weeks in Ahmedabad, Gujarat, India

Now
86 °F

Clear.


Feels Like: 87 °F
Forecast: 82 / 109 °F
Wind: 6 mph from Southwest

Location: Ahmadabad Airport

Current Time: Apr 29, 2015 at 2:08:26 AM

Latest Report: Apr 29, 2015 at 1:40 AM


Visibility: 2 mi

Pressure: 29.71 "Hg

Humidity: 49%

Dew point: 64 °F

Location of AhmedabadLocation

Historic Weather in Ahmedabad — Graph

°F

Ahmedabad temperature yesterday

Maximum temperature yesterday: 113 °F (at 3:10 PM)
Minimum temperature yesterday: 81 °F (at 6:40 AM)
Average temperature yesterday: 94 °F

Past Weeks' High & Low Weather Summary

 TemperatureHumidityPressure
High113 °F (Apr 18, 2:40 PM)79% (Apr 15, 4:40 AM)29.95 "Hg (Apr 15, 4:40 AM)
Low75 °F (Apr 14, 3:40 AM)10% (Apr 22, 3:10 PM)29.56 "Hg (Apr 18, 5:10 PM)
Average94 °F36%29.75 "Hg
* Reported Apr 14 1:40 AM — Apr 29 12:40 AM, Ahmedabad, Weather by CustomWeather, © 2015

Note: Actual official high and low records may vary slightly from our data, if they occured in-between our weather recording intervals... More about our weather records

Advertising

Ahmedabad weather history for previous 24 hours

 ConditionsComfort  
Time TempWeatherWind HumidityBarometerVisibility
12:40 AM
Wed, Apr 29
N/A6 mphN/AN/A2 mi
11:40 PM
Tue, Apr 28
N/A7 mphN/AN/A2 mi
10:40 PMN/A6 mphN/AN/A2 mi
9:40 PM91 °FClear.12 mph52%29.71 "Hg2 mi
9:10 PMN/A9 mphN/AN/A2 mi
8:40 PMN/A8 mphN/AN/A2 mi
5:40 PM109 °FClear.12 mph15%29.62 "Hg4 mi
5:10 PM111 °FClear.14 mph12%29.62 "Hg4 mi
4:40 PM111 °FClear.8 mph11%29.65 "Hg4 mi
4:10 PM113 °FClear.8 mph12%29.65 "Hg4 mi
3:40 PM113 °FClear.14 mph12%29.65 "Hg4 mi
3:10 PM113 °FClear.14 mph12%29.65 "Hg4 mi
2:40 PM111 °FClear.15 mph15%29.68 "Hg4 mi
1:40 PM108 °FClear.12 mph22%29.74 "Hg4 mi
1:10 PM106 °FClear.13 mph28%29.74 "Hg4 mi
12:40 PM102 °FClear.9 mph31%29.77 "Hg4 mi
11:40 AM97 °FClear.9 mph37%29.80 "Hg4 mi
10:40 AM95 °FClear.7 mph39%29.83 "Hg4 mi
10:10 AM91 °FClear.9 mph44%29.83 "Hg3 mi
9:40 AM90 °FClear.12 mph46%29.83 "Hg3 mi
7:40 AM84 °FClear.6 mph55%29.80 "Hg2 mi
7:10 AM82 °FClear.5 mph55%29.80 "Hg2 mi
6:40 AM81 °FClear.3 mph54%29.77 "Hg2 mi
6:10 AM82 °FClear.6 mph51%29.77 "Hg2 mi
5:40 AM82 °FClear.5 mph51%29.74 "Hg2 mi
5:10 AM82 °FClear.6 mph48%29.74 "Hg2 mi
4:40 AM84 °FClear.7 mph40%29.74 "Hg2 mi
3:40 AM84 °FClear.6 mph37%29.74 "Hg2 mi
3:10 AM86 °FClear.9 mph33%29.74 "Hg2 mi
2:40 AM86 °FClear.8 mph31%29.74 "Hg2 mi
Weather by CustomWeather, © 2015

See weather overviewHow to use our weather pages